When you browse on this site, cookies collect data to enhance your experience and personalize the content and advertising you see.
Visit our Privacy Policy to learn more. By continuing to use the site, you agree to this use of cookies and data.
  • In Hungary
  • List of Countries
  • For 7 days
  • Water Temperature
  • Satellite Maps
  • Weather Map
  • News
  • Weather Widgets
  • user-avatar
    Login

    Hourly Weather Zajaczki

    Today, 15 December, Saturday

    Time Temperature Precipitation Wind Pressure Humidity
    00:00 -4°C° 0 mm 3 mps 751 mmHg 89%
    01:00 -2°C° 0 mm 2 mps 751 mmHg 91%
    02:00 -2°C° 0 mm 2 mps 751 mmHg 91%
    03:00 -2°C° 0 mm 3 mps 751 mmHg 90%
    04:00 -2°C° 0 mm 3 mps 751 mmHg 90%
    05:00 -2°C° 0 mm 3 mps 751 mmHg 90%
    06:00 -2°C° 0 mm 3 mps 751 mmHg 90%
    07:00 -2°C° 0 mm 3 mps 751 mmHg 91%
    08:00 -2°C° 0 mm 3 mps 751 mmHg 88%
    09:00 -2°C° 0 mm 3 mps 751 mmHg 86%
    10:00 -3°C° 0 mm 4 mps 751 mmHg 84%
    11:00 -2°C° 0 mm 4 mps 751 mmHg 81%
    12:00 -2°C° 0 mm 4 mps 751 mmHg 78%
    13:00 -2°C° 0 mm 4 mps 751 mmHg 75%
    14:00 -2°C° 0 mm 4 mps 751 mmHg 77%
    15:00 -2°C° 0 mm 3 mps 750 mmHg 80%
    16:00 -2°C° 0 mm 3 mps 750 mmHg 82%
    17:00 -2°C° 0 mm 3 mps 750 mmHg 83%
    18:00 -4°C° 0 mm 3 mps 750 mmHg 84%
    19:00 -4°C° 0 mm 3 mps 750 mmHg 85%
    20:00 -4°C° 0 mm 3 mps 749 mmHg 85%
    21:00 -4°C° 0 mm 3 mps 749 mmHg 86%
    22:00 -4°C° 0 mm 3 mps 749 mmHg 86%
    23:00 -4°C° 0 mm 3 mps 748 mmHg 86%

    Tomorrow, 16 December, Sunday

    Time Temperature Precipitation Wind Pressure Humidity
    00:00 -4°C° 0 mm 3 mps 748 mmHg 85%
    01:00 -4°C° 0 mm 3 mps 748 mmHg 85%
    02:00 -4°C° 0 mm 3 mps 747 mmHg 85%
    03:00 -4°C° 0 mm 3 mps 747 mmHg 85%
    04:00 -4°C° 0 mm 3 mps 746 mmHg 85%
    05:00 -4°C° 0 mm 3 mps 746 mmHg 85%
    06:00 -4°C° 0 mm 3 mps 746 mmHg 85%
    07:00 -3°C° 0 mm 2 mps 746 mmHg 85%
    08:00 -3°C° 0 mm 2 mps 745 mmHg 85%
    09:00 -2°C° 0 mm 2 mps 745 mmHg 84%
    10:00 -2°C° 0 mm 2 mps 745 mmHg 83%
    11:00 -2°C° 0 mm 2 mps 745 mmHg 81%
    12:00 -2°C° 0 mm 2 mps 744 mmHg 80%
    13:00 +1°C° 0 mm 1 mps 744 mmHg 78%
    14:00 -2°C° 0 mm 2 mps 744 mmHg 81%
    15:00 -2°C° 0 mm 2 mps 744 mmHg 83%
    16:00 -2°C° 0 mm 2 mps 744 mmHg 85%
    17:00 -3°C° 0 mm 2 mps 744 mmHg 85%
    18:00 -3°C° 0 mm 2 mps 744 mmHg 86%
    19:00 -3°C° 0 mm 2 mps 744 mmHg 86%
    20:00 -4°C° 0 mm 3 mps 744 mmHg 85%
    21:00 -4°C° 0 mm 3 mps 744 mmHg 85%
    22:00 -4°C° 0 mm 3 mps 744 mmHg 85%
    23:00 -4°C° 0 mm 3 mps 744 mmHg 83%

    Day after tomorrow, 17 December, Monday

    Time Temperature Precipitation Wind Pressure Humidity
    00:00 -4°C° 0 mm 3 mps 744 mmHg 80%
    01:00 -4°C° 0 mm 3 mps 744 mmHg 78%
    02:00 -4°C° 0 mm 3 mps 744 mmHg 78%
    03:00 -4°C° 0 mm 3 mps 744 mmHg 78%
    04:00 -2°C° 0 mm 3 mps 744 mmHg 79%
    05:00 -4°C° 0 mm 3 mps 745 mmHg 80%
    06:00 -3°C° 0 mm 2 mps 745 mmHg 82%
    07:00 -3°C° 0 mm 2 mps 745 mmHg 83%
    08:00 -2°C° 0 mm 2 mps 745 mmHg 82%
    09:00 -2°C° 0 mm 3 mps 746 mmHg 81%
    10:00 -1°C° 0 mm 3 mps 746 mmHg 80%
    11:00 -1°C° 0 mm 3 mps 746 mmHg 80%
    12:00 +1°C° 0 mm 2 mps 746 mmHg 80%
    13:00 +1°C° 0 mm 2 mps 747 mmHg 80%
    14:00 +1°C° 0 mm 2 mps 747 mmHg 83%
    15:00 -1°C° 0 mm 2 mps 748 mmHg 85%
    16:00 +1°C° 0 mm 1 mps 748 mmHg 88%
    17:00 -1°C° 0 mm 2 mps 748 mmHg 88%
    18:00 -1°C° 0 mm 2 mps 749 mmHg 89%
    19:00 -1°C° 0 mm 2 mps 749 mmHg 89%
    20:00 -2°C° 0 mm 2 mps 750 mmHg 90%
    21:00 -2°C° 0 mm 2 mps 750 mmHg 90%
    22:00 -2°C° 0 mm 2 mps 750 mmHg 90%
    23:00 -2°C° 0 mm 2 mps 750 mmHg 90%

    18 December, Tuesday

    Time Temperature Precipitation Wind Pressure Humidity
    00:00 -2°C° 0 mm 2 mps 750 mmHg 89%
    01:00 -2°C° 0 mm 2 mps 751 mmHg 89%
    02:00 -2°C° 0 mm 2 mps 751 mmHg 89%
    03:00 -2°C° 0 mm 2 mps 751 mmHg 89%
    04:00 -2°C° 0 mm 2 mps 751 mmHg 88%
    05:00 -1°C° 0.1 mm 2 mps 751 mmHg 89%
    06:00 -1°C° 0.1 mm 2 mps 751 mmHg 89%
    07:00 -1°C° 0.1 mm 2 mps 752 mmHg 90%
    08:00 -1°C° 0.1 mm 2 mps 752 mmHg 90%
    09:00 +1°C° 0.1 mm 1 mps 752 mmHg 91%
    10:00 +2°C° 0.1 mm 1 mps 752 mmHg 92%
    11:00 +2°C° 0 mm 1 mps 752 mmHg 92%
    12:00 +2°C° 0 mm 1 mps 752 mmHg 93%
    13:00 +2°C° 0 mm 1 mps 752 mmHg 93%
    14:00 +2°C° 0 mm 1 mps 752 mmHg 94%
    15:00 +1°C° 0 mm 1 mps 752 mmHg 95%
    16:00 0°C° 0 mm 0 mps 752 mmHg 95%
    17:00 0°C° 0 mm 0 mps 752 mmHg 95%
    18:00 +1°C° 0 mm 1 mps 753 mmHg 95%
    19:00 +1°C° 0 mm 1 mps 753 mmHg 95%
    20:00 +1°C° 0 mm 1 mps 753 mmHg 95%
    21:00 +1°C° 0 mm 1 mps 753 mmHg 94%
    22:00 +1°C° 0 mm 1 mps 753 mmHg 94%
    23:00 -2°C° 0 mm 2 mps 752 mmHg 94%

    19 December, Wednesday

    Time Temperature Precipitation Wind Pressure Humidity
    00:00 -2°C° 0 mm 2 mps 752 mmHg 93%
    01:00 -2°C° 0 mm 2 mps 752 mmHg 93%
    02:00 -2°C° 0 mm 3 mps 752 mmHg 93%
    03:00 -2°C° 0 mm 3 mps 752 mmHg 93%
    04:00 -4°C° 0 mm 3 mps 752 mmHg 93%
    05:00 -4°C° 0 mm 3 mps 752 mmHg 92%
    06:00 -4°C° 0 mm 3 mps 752 mmHg 92%
    07:00 -4°C° 0 mm 3 mps 752 mmHg 91%
    08:00 -4°C° 0 mm 3 mps 752 mmHg 88%
    09:00 -3°C° 0 mm 4 mps 752 mmHg 85%
    10:00 -3°C° 0 mm 4 mps 752 mmHg 83%
    11:00 -3°C° 0 mm 4 mps 752 mmHg 81%
    12:00 -2°C° 0 mm 4 mps 752 mmHg 80%
    13:00 -2°C° 0 mm 4 mps 751 mmHg 78%
    14:00 -4°C° 0 mm 5 mps 751 mmHg 80%
    15:00 -4°C° 0 mm 5 mps 751 mmHg 82%
    16:00 -5°C° 0 mm 5 mps 751 mmHg 84%
    17:00 -4°C° 0 mm 4 mps 751 mmHg 84%
    18:00 -4°C° 0 mm 4 mps 751 mmHg 84%
    19:00 -4°C° 0 mm 4 mps 751 mmHg 84%
    20:00 -4°C° 0 mm 4 mps 751 mmHg 84%
    21:00 -4°C° 0 mm 4 mps 751 mmHg 84%
    22:00 -4°C° 0 mm 3 mps 751 mmHg 85%
    23:00 -5°C° 0 mm 4 mps 751 mmHg 84%

    20 December, Thursday

    Time Temperature Precipitation Wind Pressure Humidity
    00:00 -5°C° 0 mm 4 mps 751 mmHg 84%
    01:00 -5°C° 0 mm 4 mps 751 mmHg 84%
    02:00 -5°C° 0 mm 4 mps 751 mmHg 83%
    03:00 -6°C° 0 mm 5 mps 751 mmHg 82%
    04:00 -6°C° 0 mm 5 mps 750 mmHg 82%
    05:00 -7°C° 0 mm 5 mps 750 mmHg 81%
    06:00 -7°C° 0 mm 5 mps 750 mmHg 81%
    07:00 -7°C° 0 mm 5 mps 750 mmHg 81%
    08:00 -7°C° 0 mm 5 mps 751 mmHg 79%
    09:00 -7°C° 0 mm 5 mps 751 mmHg 78%
    10:00 -6°C° 0 mm 5 mps 751 mmHg 76%
    11:00 -6°C° 0 mm 5 mps 751 mmHg 75%
    12:00 -4°C° 0 mm 4 mps 751 mmHg 73%
    13:00 -4°C° 0 mm 4 mps 750 mmHg 71%
    14:00 -4°C° 0 mm 4 mps 750 mmHg 73%
    15:00 -4°C° 0 mm 4 mps 751 mmHg 74%
    16:00 -5°C° 0 mm 4 mps 751 mmHg 76%
    17:00 -5°C° 0 mm 4 mps 751 mmHg 77%
    18:00 -5°C° 0 mm 4 mps 751 mmHg 78%
    19:00 -5°C° 0 mm 4 mps 751 mmHg 79%
    20:00 -5°C° 0 mm 4 mps 751 mmHg 79%
    21:00 -7°C° 0 mm 4 mps 752 mmHg 80%
    22:00 -7°C° 0 mm 4 mps 752 mmHg 80%
    23:00 -6°C° 0 mm 3 mps 752 mmHg 81%
    Show more